NOAA 16 DEB, 41074

Orbit data source: Space-Track

NOAA 16 DEB, 41074 is space debris in SSO originally from a launch on Thu, 21 Sep 2000 UTC launched from the Air Force Western Test Range (AFWTR). Debris objects in space refer to the collection of defunct objects orbiting the Earth. Examples of debris include non-operational satellites, rocket bodies, and fragments generated from explosions, collisions, or faulty payload assembly.

Loading next visibility...
Identifier
41074, 2000-055AH
Orbit
SSO
Last TLE update
15 hours ago
Origin
Manufacturer
Unknown
Mission
Spacecraft
Bus & Motor
Unknown
Mass
Unknown
Launch date (UTC)
2000-09-21 (25 years ago)
Launch vehicle
Unknown
Launch site
Air Force Western Test Range (AFWTR)
Object type
Payload
Rocket body
Debris
Shape & HBR
Unknown
Radar Cross Section
Small (<0.1 m²)

Expand to show TLE details & history

TLE from 15 hours ago
0 NOAA 16 DEB
1 41074U 00055AH  25191.47026998  .00001621  00000-0  45590-3 0  9995
2 41074  98.8737   3.4753 0086948 152.8076 207.7707 14.45148426504161
Epoch: 2025-07-10T11:17Z
TLE epoch observation values (Epoch: 2025-07-10T11:17:11.326Z)
Latitude
0.00003°
Longitude
-94.45799°
Altitude
799.383 km
Speed
7.425 km/s
True Right ascension
00h 13m 54s
True Declination
0° 00' 00"
Sunlit
Object was in daylight at epoch
Visualization orbit readout
Latitude
81.00013°
Longitude
164.86698°
Altitude
722.764 km
Speed
7.518 km/s
Apparent Right ascension
02h 17m 23s
Apparent Declination
35° 32' 41"
Sunlit
Object is in daylight
Visualization observer readout
Local Sidereal Time
14:56:35
Azimuth
8.206° NNE
Elevation
-14.001°
Doppler factor
1
Orbital elements
Apogee altitude
800.551 km
Perigee altitude
676.792 km
Semi-major axis
7,116.808 km
Eccentricity
0.00869
Inclination
98.8737°
RAAN
3.4753°
Arg. of periapsis
152.8076°
True anomaly
Unknown
Mean anomaly
207.7707°
Eccentric anomaly
Unknown
Mean motion
3.61506 °/min
Orbital period
99.58 mins
BSTAR
0.0004559
Loading maneuver chart data...
Loading SW <> Apogee altitude chart data...
Loading historical data...
Loading historical data...
Loading historical data...
Loading historical data...
Loading historical data...
Loading historical data...
Loading historical data...

NOAA 16 DEB Visibility forecast

Observer location: undefined°, undefined°

Span
Click to sort rows by Start time (UTC) header in descending order
Start Az.
Max El. time (UTC)
Max El. Az.
Max El.
End time (UTC)
End Az.
8 mins2025-07-11 10:40:59.300Z128.917° SE2025-07-11 10:44:59.300Z70.132° E28.872°2025-07-11 10:48:59.300Z8.337° NNE
6 mins2025-07-11 12:20:59.300Z221.308° SW2025-07-11 12:22:59.300Z253.334° W24.367°2025-07-11 12:26:59.300Z316.076° NNW
7 mins2025-07-12 00:25:59.300Z14.706° NNE2025-07-12 00:28:59.300Z33.428° NE44.844°2025-07-12 00:32:59.300Z194.145° SSW
|